TimePST,TemperatureF,Dew PointF,Humidity,Sea Level PressureIn,VisibilityMPH,Wind Direction,Wind SpeedMPH,Gust SpeedMPH,PrecipitationIn,Events,Conditions,WindDirDegrees,DateUTC
12:15 AM,0.5,-5.8,75,30.42,10.0,ESE,8.1,-,N/A,,Clear,110,2013-12-09 08:15:00
12:35 AM,0.5,-5.8,75,30.41,10.0,ESE,8.1,-,N/A,,Clear,110,2013-12-09 08:35:00
12:55 AM,1.4,-5.1,74,30.41,10.0,SE,9.2,-,N/A,,Clear,130,2013-12-09 08:55:00
1:15 AM,1.0,-5.3,75,30.41,10.0,ESE,8.1,-,N/A,,Clear,120,2013-12-09 09:15:00
1:35 AM,1.0,-5.3,75,30.42,10.0,ESE,9.2,-,N/A,,Clear,110,2013-12-09 09:35:00
1:55 AM,1.4,-5.1,74,30.42,10.0,ESE,9.2,-,N/A,,Clear,120,2013-12-09 09:55:00
2:35 AM,1.6,-5.1,74,30.42,10.0,SE,6.9,-,N/A,,Clear,130,2013-12-09 10:35:00
2:55 AM,2.1,-4.7,73,30.41,10.0,SE,8.1,-,N/A,,Clear,130,2013-12-09 10:55:00
3:15 AM,1.8,-5.1,73,30.41,10.0,East,6.9,-,N/A,,Clear,90,2013-12-09 11:15:00
3:35 AM,0.3,-5.4,77,30.41,10.0,East,9.2,-,N/A,,Clear,100,2013-12-09 11:35:00
3:55 AM,0.7,-5.1,77,30.41,10.0,East,8.1,-,N/A,,Clear,100,2013-12-09 11:55:00
4:15 AM,0.3,-5.4,77,30.40,10.0,East,8.1,-,N/A,,Clear,100,2013-12-09 12:15:00
4:35 AM,1.4,-4.9,75,30.40,10.0,East,9.2,-,N/A,,Clear,90,2013-12-09 12:35:00
4:55 AM,0.5,-5.3,77,30.39,10.0,East,10.4,-,N/A,,Clear,90,2013-12-09 12:55:00
5:15 AM,1.9,-4.4,75,30.38,10.0,East,10.4,-,N/A,,Clear,90,2013-12-09 13:15:00
5:35 AM,2.3,-4.0,75,30.39,10.0,East,8.1,-,N/A,,Clear,90,2013-12-09 13:35:00
5:55 AM,2.7,-4.0,74,30.39,10.0,ESE,8.1,-,N/A,,Clear,110,2013-12-09 13:55:00
6:15 AM,3.7,-3.3,73,30.39,10.0,ESE,4.6,-,N/A,,Clear,110,2013-12-09 14:15:00
6:35 AM,3.9,-3.5,71,30.40,10.0,SSE,3.5,-,N/A,,Clear,160,2013-12-09 14:35:00
6:55 AM,2.1,-4.4,74,30.41,10.0,Calm,Calm,-,N/A,,Clear,0,2013-12-09 14:55:00
7:15 AM,3.2,-3.6,73,30.41,10.0,Calm,Calm,-,N/A,,Clear,0,2013-12-09 15:15:00
7:35 AM,1.6,-4.4,76,30.41,10.0,Calm,Calm,-,N/A,,Clear,0,2013-12-09 15:35:00
7:55 AM,0.1,-5.4,77,30.42,10.0,East,8.1,-,N/A,,Clear,100,2013-12-09 15:55:00
8:15 AM,1.8,-4.0,77,30.42,10.0,East,9.2,-,N/A,,Clear,100,2013-12-09 16:15:00
8:35 AM,4.8,-2.4,72,30.42,10.0,East,11.5,-,N/A,,Clear,80,2013-12-09 16:35:00
8:55 AM,6.8,-1.3,69,30.43,10.0,East,10.4,-,N/A,,Clear,80,2013-12-09 16:55:00
9:15 AM,8.6,-0.4,67,30.43,10.0,East,6.9,-,N/A,,Clear,80,2013-12-09 17:15:00
9:35 AM,9.9,-0.0,64,30.42,10.0,East,6.9,-,N/A,,Clear,90,2013-12-09 17:35:00
9:55 AM,11.3,1.2,64,30.42,10.0,East,8.1,-,N/A,,Clear,80,2013-12-09 17:55:00
10:15 AM,11.3,1.2,64,30.42,10.0,East,12.7,-,N/A,,Clear,100,2013-12-09 18:15:00
10:35 AM,13.8,1.9,59,30.41,10.0,East,8.1,-,N/A,,Clear,80,2013-12-09 18:35:00
10:55 AM,14.7,2.8,59,30.41,10.0,East,9.2,18.4,N/A,,Clear,90,2013-12-09 18:55:00
11:15 AM,15.8,3.2,58,30.40,10.0,East,8.1,-,N/A,,Clear,90,2013-12-09 19:15:00
11:35 AM,17.4,3.0,53,30.39,10.0,ENE,8.1,-,N/A,,Clear,60,2013-12-09 19:35:00
11:55 AM,18.1,4.5,55,30.39,10.0,ENE,8.1,-,N/A,,Clear,70,2013-12-09 19:55:00
12:15 PM,19.2,4.6,53,30.38,10.0,East,5.8,-,N/A,,Clear,100,2013-12-09 20:15:00
12:35 PM,20.5,4.8,51,30.37,10.0,East,6.9,-,N/A,,Clear,90,2013-12-09 20:35:00
12:55 PM,21.2,4.8,49,30.36,10.0,East,6.9,-,N/A,,Scattered Clouds,90,2013-12-09 20:55:00
1:15 PM,21.7,5.7,50,30.35,10.0,East,9.2,-,N/A,,Mostly Cloudy,80,2013-12-09 21:15:00
1:35 PM,22.3,6.3,50,30.35,10.0,East,6.9,-,N/A,,Scattered Clouds,100,2013-12-09 21:35:00
1:55 PM,22.5,6.8,51,30.34,10.0,ENE,9.2,-,N/A,,Clear,70,2013-12-09 21:55:00
2:15 PM,23.2,7.7,52,30.34,10.0,ENE,6.9,-,N/A,,Clear,70,2013-12-09 22:15:00
2:35 PM,23.7,7.5,50,30.34,10.0,East,6.9,-,N/A,,Clear,90,2013-12-09 22:35:00
2:55 PM,23.5,7.9,51,30.34,10.0,East,10.4,-,N/A,,Clear,80,2013-12-09 22:55:00
3:15 PM,23.5,7.7,51,30.33,10.0,East,6.9,-,N/A,,Clear,100,2013-12-09 23:15:00
3:35 PM,23.5,7.0,49,30.32,10.0,East,5.8,-,N/A,,Clear,100,2013-12-09 23:35:00
3:55 PM,22.5,6.3,50,30.32,10.0,East,5.8,-,N/A,,Clear,100,2013-12-09 23:55:00
4:15 PM,21.6,7.0,54,30.32,10.0,East,9.2,-,N/A,,Clear,90,2013-12-10 00:15:00
4:35 PM,22.1,6.6,51,30.32,10.0,East,9.2,-,N/A,,Scattered Clouds,90,2013-12-10 00:35:00
4:55 PM,22.1,6.6,51,30.32,10.0,East,8.1,-,N/A,,Scattered Clouds,100,2013-12-10 00:55:00
5:15 PM,21.7,6.4,52,30.32,10.0,East,4.6,-,N/A,,Scattered Clouds,90,2013-12-10 01:15:00
5:35 PM,22.3,6.8,52,30.32,10.0,East,5.8,-,N/A,,Scattered Clouds,90,2013-12-10 01:35:00
5:55 PM,22.1,7.3,53,30.31,10.0,SE,6.9,-,N/A,,Scattered Clouds,130,2013-12-10 01:55:00
6:15 PM,22.1,7.3,53,30.32,10.0,ESE,4.6,-,N/A,,Clear,110,2013-12-10 02:15:00
6:35 PM,23.4,8.4,53,30.32,10.0,SSE,10.4,-,N/A,,Clear,160,2013-12-10 02:35:00
6:55 PM,25.7,8.2,48,30.32,10.0,SSE,10.4,-,N/A,,Clear,160,2013-12-10 02:55:00
7:15 PM,23.7,8.4,52,30.32,10.0,SSE,11.5,-,N/A,,Clear,160,2013-12-10 03:15:00
7:35 PM,23.9,8.2,51,30.32,10.0,SSE,6.9,-,N/A,,Clear,160,2013-12-10 03:35:00
7:55 PM,23.7,7.7,51,30.32,10.0,SSE,6.9,-,N/A,,Clear,150,2013-12-10 03:55:00
8:15 PM,23.2,7.7,52,30.32,10.0,SE,5.8,-,N/A,,Clear,140,2013-12-10 04:15:00
8:35 PM,23.9,7.9,51,30.32,10.0,SE,5.8,-,N/A,,Clear,140,2013-12-10 04:35:00
8:55 PM,23.7,7.7,51,30.31,10.0,SE,8.1,16.1,N/A,,Clear,140,2013-12-10 04:55:00
9:15 PM,22.3,7.7,54,30.32,10.0,SE,10.4,-,N/A,,Clear,130,2013-12-10 05:15:00
9:35 PM,21.4,9.0,59,30.32,10.0,SE,8.1,-,N/A,,Clear,130,2013-12-10 05:35:00
9:55 PM,21.7,9.0,58,30.32,10.0,SSE,12.7,-,N/A,,Clear,150,2013-12-10 05:55:00
10:15 PM,21.4,8.6,58,30.32,10.0,SE,9.2,-,N/A,,Clear,140,2013-12-10 06:15:00
10:35 PM,21.2,8.4,58,30.31,10.0,SE,10.4,-,N/A,,Clear,140,2013-12-10 06:35:00
10:55 PM,19.9,8.2,61,30.32,10.0,SSE,5.8,-,N/A,,Clear,150,2013-12-10 06:55:00
11:15 PM,18.7,8.2,64,30.31,10.0,South,8.1,-,N/A,,Clear,170,2013-12-10 07:15:00
11:35 PM,20.3,8.6,61,30.32,10.0,SSE,6.9,-,N/A,,Clear,160,2013-12-10 07:35:00
11:55 PM,18.3,8.1,64,30.32,10.0,SSE,5.8,-,N/A,,Clear,160,2013-12-10 07:55:00